Theta_e
348 348 349 354 352 352 352 353 349 350 350 348 349 349 348 348 352 352 351 351 351 352 352 352 352 352 352 353 351 351 351 351 350 349 349 341 342 343 346 353 351 349 352
350 348 348 351 353 347 350 351 349 349 349 344 341 347 351 350 352 349 350 352 353 352 353 352 352 348 346 351 352 348 347 350 351 350 343 342 342 343 346 348 347 348 350
348 347 347 352 351 352 351 350 350 350 351 349 352 352 351 351 352 352 350 353 353 353 352 351 350 348 342 341 345 342 345 346 341 345 341 339 341 345 345 349 350 348 348
350 347 346 350 345 348 350 349 350 351 351 351 351 348 344 348 352 353 354 352 351 351 350 346 342 341 340 337 339 340 342 344 345 348 344 341 346 343 348 350 347 345 342
350 349 348 349 345 348 348 348 349 351 351 349 344 352 349 350 346 349 349 349 351 352 352 344 342 341 342 342 343 344 346 347 346 345 346 345 344 345 346 349 348 338 335
348 349 347 344 350 349 349 350 347 345 342 341 352 352 351 351 353 352 352 350 351 349 349 344 342 343 342 343 344 345 347 346 347 350 347 346 344 337 344 337 344 345 340
348 347 349 350 351 350 348 348 335 347 349 347 348 349 347 350 348 347 348 347 347 347 348 345 343 342 343 343 342 343 345 346 346 345 346 347 345 337 346 350 347 348 345
346 349 349 348 350 347 348 345 337 349 348 347 348 346 344 339 342 343 342 341 341 341 341 341 341 342 342 343 342 342 342 344 345 344 346 346 340 335 338 343 336 340 341
351 350 349 349 349 349 348 335 334 347 346 346 339 340 342 337 333 334 334 334 334 334 336 337 336 338 338 339 340 340 341 344 342 344 342 340 333 334 337 336 334 334 334
352 349 349 348 346 348 346 346 341 333 335 339 336 338 341 342 342 341 337 335 337 337 337 336 336 332 333 335 337 342 342 342 345 346 346 344 341 333 337 337 333 333 333
352 351 346 347 346 345 343 345 345 340 337 340 339 342 343 343 346 348 346 345 338 335 339 339 337 337 337 337 340 343 348 346 346 345 347 344 346 338 339 338 334 331 331
349 345 348 351 347 337 337 340 340 340 345 347 344 347 345 349 350 349 348 347 346 346 348 349 348 342 340 343 347 347 347 349 349 348 344 346 347 345 340 343 339 337 336
344 349 350 352 348 345 347 348 347 348 350 346 347 349 352 350 349 349 348 347 343 350 351 347 346 343 338 346 347 347 342 345 342 340 337 342 349 347 343 342 342 341 342
348 349 350 351 349 348 347 347 347 349 348 345 347 351 351 351 347 348 349 350 350 346 345 348 348 347 345 348 348 346 345 345 342 341 338 347 344 344 343 344 343 342 342
346 345 349 350 349 347 349 347 345 342 346 349 351 348 347 346 349 351 351 348 348 348 347 349 349 346 346 347 348 345 346 346 344 345 344 339 340 346 346 345 344 343 341
342 342 345 348 347 345 340 345 348 348 349 350 351 349 347 349 352 350 351 349 341 348 349 348 348 349 350 350 349 347 344 347 346 347 346 346 346 346 341 345 344 343 343
340 340 345 347 345 343 345 344 347 346 347 348 350 351 350 349 351 352 351 351 347 349 349 349 348 350 350 348 348 343 341 342 340 345 345 345 345 347 349 344 340 338 336
339 340 339 347 344 343 341 344 346 347 346 346 346 346 349 348 350 350 350 351 352 350 348 350 350 351 350 348 345 343 343 340 339 341 340 343 343 343 348 349 342 338 335
335 338 339 346 345 342 340 342 344 346 345 345 345 344 346 349 348 351 354 353 353 353 351 349 349 350 350 348 343 345 347 342 342 340 339 343 340 343 345 346 348 343 337
337 340 343 346 346 342 339 338 341 346 345 343 344 343 345 345 346 350 354 353 354 351 351 349 348 349 350 348 349 348 346 343 344 342 340 341 342 341 340 339 341 346 343
343 345 342 346 345 338 343 341 342 345 344 344 343 343 346 344 345 346 354 354 352 353 351 349 350 345 340 344 347 345 343 344 341 344 343 341 339 340 343 341 342 342 344
345 345 345 346 347 342 343 343 342 342 343 344 345 347 345 346 343 345 353 353 354 354 353 348 351 349 349 349 349 345 342 343 342 341 341 340 340 340 335 334 341 341 342
345 346 345 345 346 343 344 344 344 345 345 348 347 345 344 344 349 344 353 354 356 356 355 353 353 352 349 349 348 347 343 343 342 342 342 341 342 341 341 342 341 341 341
345 345 344 344 345 343 345 345 346 345 346 346 345 342 346 346 349 347 353 355 342 351 351 351 350 352 351 349 348 347 346 345 340 341 342 343 342 340 340 339 337 336 336
347 345 344 344 345 343 343 344 345 345 345 345 346 348 348 347 349 351 354 350 341 343 341 345 349 349 347 349 347 346 345 345 344 340 342 339 337 334 332 330 329 332 335
347 347 346 347 347 345 345 346 346 346 347 350 350 351 347 350 353 353 354 353 351 348 347 349 352 350 348 346 345 344 345 344 341 340 337 336 336 334 331 331 332 332 330
Wind_Speed
13 14 16 18 18 19 19 18 19 19 19 19 20 20 20 19 19 19 18 17 16 15 15 13 12 13 13 11 12 12 13 13 11 13 11 11 11 12 12 9 8 8 9
15 16 15 18 18 17 17 17 17 17 17 17 17 17 16 17 18 18 16 15 14 14 13 13 11 11 11 11 10 12 10 11 10 10 11 11 11 12 11 10 8 8 8
17 17 16 17 17 16 16 16 15 15 15 17 16 17 16 16 16 14 15 14 13 12 12 11 10 10 11 11 11 12 10 9 9 8 8 9 9 12 12 9 9 8 8
19 18 16 16 15 15 14 15 14 15 13 15 15 15 14 14 15 13 14 13 12 11 10 11 9 9 8 9 9 8 8 6 6 7 7 9 9 12 11 11 10 8 7
20 20 18 16 15 14 14 14 14 14 14 12 15 14 13 14 13 12 11 11 11 9 6 8 7 8 6 6 5 4 3 2 4 7 10 10 10 11 11 10 10 9 8
19 18 17 16 14 14 14 14 12 11 12 12 13 13 13 13 13 11 11 11 8 7 5 4 4 5 5 4 4 2 3 3 5 11 14 14 12 11 11 11 9 10 8
20 17 16 15 14 14 13 14 13 12 12 11 11 12 12 11 10 10 8 7 6 5 3 2 2 1 1 1 1 3 4 5 8 9 14 17 14 12 11 11 10 10 9
19 16 15 15 14 13 14 12 12 12 12 11 11 10 9 9 9 8 6 6 5 4 3 2 3 4 4 5 6 7 9 9 3 9 12 16 12 12 11 12 11 10 10
16 14 15 14 13 12 11 11 11 11 10 8 8 9 9 8 6 5 4 4 4 4 5 4 5 7 8 8 9 9 11 10 4 7 10 13 11 12 12 12 11 11 11
15 14 14 13 13 12 11 10 12 11 8 8 8 8 7 5 3 2 2 2 3 4 5 5 7 9 8 9 8 6 6 7 8 11 11 15 12 12 13 12 12 12 12
16 14 14 14 13 11 11 10 10 9 8 6 4 4 4 2 2 4 6 7 6 6 6 8 9 10 12 9 10 9 11 10 8 17 13 14 15 16 14 13 12 11 12
17 18 17 13 12 12 12 11 10 8 6 4 3 1 2 4 5 7 8 10 10 8 8 12 12 14 13 11 10 10 7 3 6 10 12 21 18 19 18 17 14 14 13
19 17 16 14 11 11 11 9 8 5 6 6 5 4 3 1 4 4 6 9 10 4 10 12 13 12 4 10 12 15 10 3 7 10 13 16 17 17 19 20 19 17 16
17 17 15 13 7 13 9 6 6 9 5 5 5 3 3 3 5 7 8 8 6 5 11 15 12 11 8 9 13 13 10 5 8 4 9 12 15 17 17 19 21 19 17
18 16 15 12 14 12 9 9 7 4 7 5 5 4 1 3 5 7 7 7 6 11 4 11 10 11 11 13 12 13 9 8 9 7 7 9 10 16 16 18 21 19 18
19 17 16 13 16 10 6 12 8 4 0 1 3 1 2 5 5 7 10 9 13 4 5 7 10 10 13 13 17 13 10 13 14 11 13 11 10 10 16 18 19 17 17
20 17 15 15 15 10 8 10 6 0 4 2 3 5 5 4 6 8 12 10 9 5 7 8 8 10 9 10 12 11 15 14 9 9 12 11 13 14 16 17 18 17 15
24 19 19 17 16 13 10 9 5 0 1 3 4 5 12 6 7 9 9 12 12 10 8 7 8 9 9 11 14 11 16 13 9 12 12 13 16 15 17 22 22 20 18
29 24 23 21 18 16 14 11 8 5 6 7 6 6 4 7 5 7 9 9 11 9 8 8 11 11 12 15 16 17 18 12 14 12 13 16 13 14 16 22 26 25 24
29 26 26 25 21 19 15 13 12 10 8 8 8 9 9 8 5 8 7 8 7 7 6 7 11 10 12 12 17 18 16 12 12 9 10 14 16 16 16 16 17 28 32
29 27 31 31 24 23 20 17 14 12 11 11 10 14 14 12 10 10 10 9 7 9 9 9 11 12 14 11 9 18 18 7 17 11 15 13 16 24 25 17 19 23 28
30 32 33 33 28 28 22 19 16 14 13 14 11 10 7 9 12 13 11 9 9 10 10 8 12 10 12 10 6 5 3 16 9 26 21 25 26 26 25 26 26 22 21
31 32 36 33 32 32 26 21 18 16 16 18 17 15 14 14 15 15 12 11 10 10 8 12 11 11 15 16 14 6 3 3 9 19 24 17 23 23 25 26 31 29 26
33 36 35 35 34 33 28 27 26 22 20 20 17 16 12 11 9 14 14 11 13 10 10 11 12 11 12 13 13 6 13 11 2 4 9 21 18 25 21 23 24 24 25
30 36 38 38 38 37 34 32 29 26 25 22 19 15 15 15 13 12 14 14 10 11 14 10 12 11 11 9 10 12 13 9 5 4 5 13 25 23 24 27 25 24 29
31 32 39 37 40 41 37 34 32 30 25 20 18 19 17 11 8 7 10 13 15 14 12 11 10 11 11 11 12 12 10 4 8 5 4 7 12 26 26 23 22 22 13
Wind_Direction
121 119 107 101 103 102 95 93 92 89 90 91 93 94 95 96 97 97 101 103 107 106 103 101 104 103 107 109 113 114 114 118 125 129 137 137 149 155 148 148 146 139 134
129 127 119 106 105 109 103 97 94 94 92 91 93 96 93 96 97 98 101 103 101 100 100 106 104 109 116 114 113 113 110 116 121 129 137 148 160 163 170 161 160 154 145
132 133 127 111 112 107 100 101 96 96 92 92 93 92 92 90 97 101 105 102 103 99 100 101 106 109 118 115 116 114 111 108 132 132 137 158 154 169 169 173 172 162 159
131 131 125 119 114 111 106 100 98 99 98 97 95 94 96 104 100 99 102 104 106 106 105 104 103 104 106 112 112 113 112 126 160 183 169 167 164 177 184 180 180 180 177
135 132 128 121 116 112 111 107 104 100 99 98 102 100 94 97 99 103 106 108 108 108 114 113 112 112 107 110 109 118 116 159 209 228 224 187 188 188 189 191 188 185 183
135 133 126 125 121 114 111 103 105 106 102 104 98 100 106 99 107 110 117 124 124 121 129 123 124 123 112 110 126 148 162 197 229 246 213 211 203 195 189 193 200 191 180
134 132 127 125 119 118 115 108 108 104 105 108 109 111 114 118 121 124 127 130 136 141 161 181 195 217 343 347 316 287 283 294 270 222 207 209 209 198 195 199 196 196 198
130 131 128 123 120 120 117 114 120 109 116 119 120 118 118 122 130 136 141 147 164 175 192 213 267 278 284 289 286 300 300 330 277 190 207 210 213 204 196 203 208 206 212
127 128 123 121 123 119 114 115 127 125 123 125 123 128 121 121 132 151 175 184 209 223 242 254 273 285 281 287 295 303 308 325 287 193 218 231 224 214 205 202 206 208 210
132 128 125 127 125 124 124 124 123 134 137 131 134 129 124 133 140 172 245 277 277 280 280 281 270 269 282 286 298 309 303 316 300 285 250 243 246 233 217 209 209 211 212
132 132 135 135 127 133 136 131 125 122 118 119 137 158 144 188 266 287 291 290 302 295 294 287 293 298 292 285 305 313 286 286 263 272 280 269 264 252 240 225 223 219 220
144 150 148 141 137 141 134 127 131 134 136 117 82 18 254 276 285 280 288 303 299 301 300 303 302 304 289 317 317 327 355 295 228 254 301 264 260 256 251 241 231 231 231
157 154 151 143 152 155 147 148 146 141 172 146 121 89 92 200 272 309 298 302 293 326 302 306 303 318 354 318 334 337 341 1 174 305 271 268 257 246 247 249 241 236 238
166 159 154 155 160 173 177 161 151 167 153 132 114 41 29 356 340 329 324 321 356 333 290 275 281 314 317 326 341 348 325 274 229 297 213 220 233 235 235 249 248 248 252
171 171 168 166 157 176 191 181 159 122 122 121 114 90 344 316 325 342 324 329 324 287 325 287 271 300 318 324 332 338 309 279 270 285 250 268 247 241 237 245 246 246 250
181 184 178 177 185 180 154 137 146 146 93 225 162 39 6 10 347 327 331 350 326 272 280 312 295 310 314 315 319 321 321 289 266 262 249 258 253 259 243 247 246 243 251
194 188 187 174 173 188 165 168 175 9 21 191 247 266 259 321 311 323 333 339 337 313 293 287 289 311 337 332 324 323 330 331 279 254 249 257 270 261 246 241 242 238 237
195 193 199 195 188 188 198 183 193 21 212 283 282 312 264 272 301 328 342 345 338 333 331 341 326 317 316 325 319 325 325 322 291 260 254 250 264 264 252 245 245 242 243
203 202 203 208 205 196 202 202 206 210 226 253 266 306 228 234 298 317 328 351 350 321 318 316 311 303 315 322 323 319 315 324 323 251 255 260 270 271 273 267 256 253 248
199 207 212 207 215 208 203 203 209 222 233 225 240 277 267 254 314 313 310 316 329 2 342 322 328 310 311 321 337 327 320 324 337 292 274 285 281 272 292 306 301 271 257
202 204 203 203 208 202 200 202 214 225 234 247 266 285 279 248 295 309 294 306 303 336 337 343 336 334 332 338 335 337 330 333 332 338 323 311 302 313 296 304 306 313 279
203 208 208 204 210 208 208 210 217 227 243 260 261 271 277 265 294 294 298 312 323 331 341 335 336 327 321 325 316 326 331 313 309 321 312 309 306 320 312 308 314 306 283
202 203 204 206 208 208 210 210 215 225 246 258 263 269 278 300 281 271 278 284 303 302 316 333 321 308 318 321 323 321 332 264 319 314 309 314 324 324 323 321 323 319 309
206 209 210 208 210 209 208 206 211 223 236 249 264 274 273 299 276 249 254 273 287 285 331 330 329 320 317 321 332 341 331 322 294 318 313 318 325 327 329 324 323 319 316
204 209 211 215 216 214 214 219 223 231 240 252 263 266 278 290 279 250 249 275 315 308 315 314 317 314 322 327 356 344 344 339 316 299 309 327 327 334 335 330 327 326 335
202 204 211 214 217 218 220 221 226 231 232 239 251 261 266 282 305 294 267 272 309 316 331 326 320 329 345 347 349 354 355 329 308 288 269 285 295 318 328 335 334 341 10